Simultaneous Nadir Overpasses (SNOs) Predictions

Prediction of SNOs between METOP-B and NOAA-19 Satellite Orbit:

Table of predicted SNOs for the next 14.0 days since TLE Epoch: 6/5/2021
Index Date (METOP-B) Time (METOP-B) Lat,Lon (METOP-B) SZA (METOP-B ) Date (NOAA-19) Time (NOAA-19) Lat,Lon (NOAA-19) SZA (NOAA-19 ) Distance(km) Time Diff (sec)
1 06/11/2021 06:20:34 80.53, 113.56 58.65 06/11/2021 06:19:38 80.53, 113.38 58.61 3.20 56
2 06/11/2021 07:11:16 -80.52, -79.26 121.38 06/11/2021 07:10:33 -80.53, -79.26 121.39 1.03 43
3 06/11/2021 08:01:56 80.52, 88.09 58.62 06/11/2021 08:01:38 80.53, 88.00 58.61 1.84 18
4 06/11/2021 08:52:38 -80.51,-104.72 121.41 06/11/2021 08:52:33 -80.53,-104.64 121.39 2.10 5
5 06/11/2021 09:43:18 80.51, 62.62 58.60 06/11/2021 09:43:38 80.52, 62.62 58.61 1.28 20
6 06/11/2021 10:33:59 -80.53,-129.86 121.38 06/11/2021 10:34:33 -80.52,-130.02 121.39 3.08 34
7 06/11/2021 11:24:40 80.50, 37.16 58.57 06/11/2021 11:25:38 80.52, 37.23 58.62 2.22 58



Historial Predications of SNOs between METOP-B and NOAA-19
